Aérodrome :
LOGIN :

S'inscrire | Disclaimer

   EN    FR    IT 

 










Légende :    VFR   VFR Marginal   IFR   IFR Intensif   IFR Très Intensif
Visi : 
Plafond : 
>= 8 km
>= 3000ft
5 à 8 km
1000 à 3000 ft
1500m à 5 km
500 à 1000 ft
800 à 1500m
200 à 500 ft
< 800m
< 200 ft
Symboles :   Orages  Brouillard  Fortes neiges  Fortes précipitations  Vent > 20 kt
SIGMETs :   Divers  Orages  Givrage  Turbulence  Onde Orograph.  Cendres Volcan.






- Altitude de l'aérodrome : 511 ft
- Code IATA : LHA


EDTL - Lahr Schwarzwald

DERNIER METAR :
  • 021750Z 14005KT CAVOK 17/13 Q1016

METARs EXPIRÉS :
  • 021720Z 12004KT CAVOK 18/13 Q1016
  • 021650Z 17004KT 130V220 9999 VCSH SCT060TCU 18/13 Q1016
  • 021620Z 20007KT 9999 VCSH SCT045TCU 17/14 Q1016 RETS
  • 021550Z 24010KT 9999 -TSRA FEW030 BKN055CB 17/14 Q1016

TAF TAF EDTL
Valide du 02 à 18h jusqu'au 03 à 00h UTC


021700Z 0218/0224 20004KT 9999 SCT040



MET'MAP, la Météo Aéronautique d'un coup d'oeil ! - Copyright ORBIFLY Décembre 2007 - Disclaimer

ORBIFLY MET'MAP TEAM :

Programmation & Développement : Alexandra Zaïnal
Sur une idée originale de : Baudouin d'Aumeries
Assistance à la programmation : Marc-Olivier Méhu
Soutien technique & logistique : Manuel Goepfert

Contact : metmap@orbifly.com




SOURCES & CREDITS :

   NOAA